GFSWCAN_850_dewp_234.txt.gz
Dewpoint
-5 -4 -4 -4 -6 -5 -5 -5 -7 -5 -7 -8 -7 -7 -6 -6 -7 -5 -4 -4 -3 -4 -5 -6 -6 -3 -3 -1 -0 -2 -0 0 1 2 2 2 1 -2 -1 -6 -5 -1 -0 0 -0 1 1 -9 -10 -7 -9 -11 -11 -11
-4 -4 -4 -5 -6 -5 -5 -6 -6 -5 -8 -6 -6 -6 -7 -6 -6 -7 -4 -4 -6 -4 -4 -3 -3 -4 -3 -2 -2 -1 -2 -2 1 2 2 1 2 -1 -2 -2 -7 -2 -3 -2 -4 -2 -7 -10 -9 -11 -10 -10 -10 -11
-4 -4 -4 -5 -4 -5 -5 -7 -6 -5 -7 -6 -6 -8 -6 -6 -6 -6 -5 -6 -5 -4 -3 -3 -3 -2 -2 -1 -2 -1 -1 -1 -0 -0 2 2 2 -1 -0 -1 -5 -7 -8 -2 -4 -6 -7 -9 -10 -10 -10 -10 -9 -8
-5 -5 -5 -5 -6 -7 -6 -9 -6 -6 -7 -8 -8 -6 -6 -6 -5 -5 -5 -5 -3 -3 -1 -2 -4 -2 -3 -1 -1 -1 -1 -1 -1 -1 1 1 1 -3 -2 -4 -3 -6 -6 -5 -4 -6 -8 -9 -10 -9 -8 -8 -9 -8
-5 -5 -5 -5 -5 -7 -6 -10 -5 -5 -6 -8 -6 -7 -6 -6 -5 -5 -4 -4 -3 -3 -0 -2 -3 -3 -3 -2 -2 -1 -1 -2 -1 0 2 1 -1 -1 -2 -2 -2 -6 -4 -2 -1 -7 -7 -7 -9 -9 -9 -9 -8 -8
-5 -6 -5 -5 -6 -6 -9 -7 -5 -6 -8 -7 -7 -6 -6 -5 -5 -4 -3 -2 -2 -3 -2 -2 -3 -2 -2 -2 -2 -1 -1 -2 -1 -1 2 1 -1 -1 -0 -1 -6 -7 -6 -7 -5 -8 -8 -9 -9 -9 -9 -9 -8 -7
-6 -5 -5 -6 -6 -7 -8 -5 -6 -8 -7 -6 -6 -6 -5 -5 -4 -4 -2 -4 -3 -3 -2 -2 -2 -2 -3 -3 -2 -2 -2 -2 -1 -1 0 -2 -2 -1 -0 -1 -6 -7 -7 -7 -7 -6 -5 -6 -6 -7 -8 -8 -8 -6
-6 -6 -6 -6 -6 -9 -6 -5 -8 -7 -6 -6 -5 -5 -5 -6 -5 -3 -3 -3 -2 -2 -2 -1 -3 -3 -2 -3 -2 -2 -2 -2 -1 -1 -2 -2 -4 -2 -2 -7 -8 -8 -8 -8 -8 -8 -7 -7 -7 -7 -7 -7 -7 -7
-6 -6 -6 -6 -6 -9 -5 -6 -8 -7 -8 -5 -9 -10 -4 -4 -3 -3 -3 -3 -3 -3 -1 -2 -3 -3 -2 -2 -2 -2 -2 -1 -2 -2 -3 -2 -4 -1 -5 -7 -8 -8 -7 -6 -6 -6 -6 -6 -7 -7 -7 -7 -7 -7
-6 -6 -6 -6 -6 -8 -5 -7 -7 -9 -6 -8 -7 -4 -4 -4 -4 -4 -3 -3 -3 -2 -2 -1 -5 -2 -2 -3 -2 -2 -2 -2 -1 -3 -4 -2 -4 -8 -7 -5 -4 -4 -3 -3 -3 -2 -3 -4 -4 -5 -5 -6 -6 -6
-6 -6 -6 -7 -7 -9 -5 -6 -7 -9 -5 -7 -5 -4 -4 -6 -3 -3 -3 -3 -2 -2 -3 -4 -4 -4 -2 -2 -2 -3 -2 -3 -2 -4 -3 -4 -4 -5 -5 -4 -3 -3 -3 -3 -3 -3 -3 -2 -2 -2 -4 -4 -4 -3
-8 -6 -5 -6 -7 -9 -5 -6 -8 -7 -5 -7 -7 -5 -5 -3 -3 -3 -3 -5 -4 -4 -2 -3 -3 -4 -3 -3 -2 -3 -3 -2 -3 -3 -2 -4 -5 -4 -4 -3 -3 -3 -3 -3 -3 -2 -3 -2 -2 -0 -2 -3 -3 -1
-10 -9 -6 -5 -9 -9 -5 -6 -8 -5 -7 -5 -4 -4 -3 -4 -3 -4 -3 -4 -3 -4 -3 -3 -2 -3 -3 -2 -2 -2 -1 -3 -4 -1 -4 -5 -4 -4 -3 -2 -2 -3 -3 -3 -3 -3 -2 1 1 0 -1 -1 -1 -2
-8 -10 -8 -5 -7 -6 -8 -7 -6 -6 -6 -4 -5 -4 -4 -4 -5 -6 -6 -4 -6 -5 -5 -4 -3 -3 -4 -2 -4 -2 -4 -3 -3 -3 -4 -4 -3 -3 -3 -3 -3 -3 -3 -4 -4 -4 -2 1 1 0 0 -0 -1 -1
-9 -8 -7 -7 -6 -7 -7 -8 -8 -6 -6 -5 -5 -4 -5 -7 -5 -4 -4 -4 -5 -3 -3 -2 -3 -4 -3 -2 -3 -3 -2 -3 -5 -2 -3 -4 -4 -3 -3 -4 -3 -4 -4 -5 -5 -5 -4 -3 -2 -2 -2 -2 -2 -3
-8 -7 -9 -6 -7 -7 -7 -7 -6 -5 -5 -5 -6 -4 -5 -4 -3 -3 -3 -3 -3 -2 -2 -2 -2 -1 -2 -4 -4 -3 -5 -3 -3 -4 -5 -5 -4 -4 -3 -4 -4 -4 -5 -5 -5 -5 -5 -5 -4 -4 -4 -4 -4 -4
-8 -7 -7 -6 -6 -6 -7 -6 -6 -5 -5 -5 -5 -5 -4 -5 -5 -4 -4 -4 -3 -3 -2 -4 -3 -5 -4 -3 -4 -4 -3 -4 -6 -6 -6 -5 -4 -4 -4 -4 -4 -5 -4 -5 -5 -5 -5 -6 -5 -4 -5 -4 -4 -4
-7 -8 -9 -7 -6 -6 -6 -7 -5 -4 -5 -6 -5 -6 -4 -4 -5 -5 -4 -3 -3 -3 -3 -3 -3 -3 -3 -4 -4 -6 -7 -7 -7 -6 -6 -5 -5 -5 -5 -5 -5 -5 -5 -5 -5 -5 -5 -5 -5 -5 -5 -4 -3 -3
-8 -8 -9 -7 -6 -6 -6 -6 -5 -6 -7 -7 -5 -5 -5 -4 -4 -4 -5 -5 -4 -4 -3 -4 -5 -4 -6 -8 -7 -8 -8 -8 -8 -7 -5 -4 -5 -5 -5 -5 -5 -5 -5 -5 -4 -4 -5 -4 -5 -4 -4 -3 -4 -3
-8 -8 -8 -6 -6 -7 -6 -6 -6 -6 -7 -6 -5 -5 -6 -5 -5 -6 -6 -5 -5 -5 -6 -6 -7 -9 -9 -9 -9 -8 -8 -8 -8 -7 -6 -5 -4 -4 -5 -5 -5 -5 -5 -5 -5 -5 -4 -4 -4 -4 -4 -4 -4 -5
-8 -8 -8 -7 -6 -6 -6 -7 -6 -6 -6 -6 -6 -6 -5 -4 -5 -5 -6 -8 -7 -8 -8 -9 -9 -9 -9 -9 -9 -9 -9 -9 -9 -8 -7 -7 -6 -5 -5 -5 -5 -5 -5 -5 -5 -5 -5 -6 -6 -6 -6 -6 -6 -6
-8 -7 -7 -6 -6 -6 -6 -8 -7 -6 -7 -8 -6 -6 -5 -5 -6 -7 -10 -10 -10 -10 -10 -10 -10 -10 -10 -10 -11 -11 -11 -11 -9 -9 -9 -8 -6 -5 -5 -5 -5 -5 -6 -6 -6 -6 -6 -7 -7 -6 -6 -7 -7 -7
-8 -7 -7 -6 -6 -6 -9 -8 -7 -9 -6 -7 -7 -6 -6 -7 -9 -11 -10 -12 -11 -11 -11 -11 -11 -11 -11 -11 -11 -11 -11 -11 -10 -10 -10 -10 -8 -6 -6 -6 -5 -6 -6 -6 -6 -6 -6 -7 -7 -7 -7 -7 -7 -7
-7 -7 -6 -7 -7 -6 -8 -7 -7 -7 -8 -6 -7 -6 -7 -8 -12 -11 -10 -11 -12 -12 -12 -13 -12 -11 -11 -12 -11 -12 -13 -12 -11 -11 -12 -11 -10 -8 -7 -7 -6 -6 -7 -6 -6 -7 -7 -7 -7 -7 -7 -7 -7 -7
-7 -7 -7 -7 -7 -7 -7 -7 -7 -7 -7 -7 -7 -8 -8 -10 -9 -10 -10 -12 -13 -12 -13 -13 -12 -12 -12 -12 -12 -12 -13 -13 -12 -12 -13 -13 -11 -9 -9 -8 -8 -7 -7 -7 -7 -6 -7 -7 -7 -7 -7 -7 -7 -7
-8 -9 -8 -9 -8 -8 -8 -8 -8 -9 -9 -8 -10 -11 -11 -10 -9 -9 -12 -13 -13 -13 -12 -12 -12 -12 -12 -13 -12 -13 -13 -13 -13 -13 -14 -13 -13 -12 -12 -11 -10 -9 -8 -7 -7 -7 -7 -7 -7 -7 -7 -7 -7 -8
-8 -8 -9 -9 -8 -10 -10 -11 -13 -12 -10 -10 -11 -11 -11 -11 -10 -12 -13 -13 -13 -13 -14 -15 -13 -13 -13 -14 -14 -15 -14 -14 -14 -14 -14 -13 -13 -13 -13 -13 -12 -11 -10 -9 -8 -7 -7 -7 -7 -7 -7 -7 -8 -8
-10 -10 -8 -9 -10 -12 -11 -12 -11 -11 -11 -13 -13 -11 -12 -13 -13 -13 -12 -13 -14 -16 -17 -17 -17 -17 -18 -19 -20 -19 -17 -14 -14 -14 -14 -14 -15 -13 -13 -13 -12 -12 -11 -10 -9 -8 -7 -7 -7 -7 -7 -7 -8 -8
-9 -10 -10 -10 -10 -10 -11 -12 -12 -13 -13 -14 -12 -12 -13 -13 -14 -14 -14 -14 -16 -16 -16 -17 -17 -17 -18 -21 -22 -23 -24 -23 -19 -21 -20 -18 -21 -22 -20 -15 -13 -12 -11 -11 -10 -9 -8 -7 -7 -7 -8 -8 -8 -9
-10 -10 -11 -11 -10 -10 -11 -13 -12 -13 -13 -13 -13 -14 -14 -14 -14 -14 -15 -14 -14 -14 -15 -15 -17 -18 -21 -22 -23 -24 -24 -24 -24 -23 -19 -22 -23 -24 -25 -25 -23 -16 -13 -12 -11 -10 -9 -8 -8 -8 -8 -8 -8 -8
-10 -11 -12 -12 -12 -13 -14 -14 -14 -14 -14 -14 -14 -13 -14 -14 -14 -14 -15 -14 -15 -15 -16 -18 -21 -21 -21 -22 -22 -21 -22 -23 -23 -23 -23 -23 -24 -24 -25 -25 -25 -25 -19 -14 -12 -11 -10 -10 -9 -8 -8 -8 -8 -8
-11 -11 -12 -12 -13 -14 -15 -13 -13 -13 -13 -13 -14 -15 -15 -14 -14 -15 -14 -14 -15 -15 -15 -17 -17 -17 -19 -21 -22 -22 -23 -23 -22 -22 -22 -22 -23 -23 -24 -24 -25 -25 -25 -21 -13 -13 -12 -11 -10 -10 -9 -8 -8 -8
-12 -13 -13 -13 -12 -12 -13 -14 -14 -14 -14 -14 -15 -15 -15 -14 -14 -15 -14 -15 -15 -15 -16 -17 -16 -17 -18 -19 -21 -22 -22 -22 -22 -22 -22 -23 -23 -23 -23 -23 -23 -24 -25 -25 -22 -14 -13 -12 -12 -11 -10 -9 -9 -9

GFSWCAN_850_dewp_237.txt.gz
Dewpoint
-5 -6 -5 -4 -4 -4 -6 -5 -5 -6 -7 -5 -6 -8 -7 -6 -5 -5 -5 -4 -3 -3 -4 -6 -7 -7 -7 -6 -2 -3 -2 -1 1 1 0 -0 0 -2 -2 -4 -3 1 0 2 2 2 2 -8 -9 -7 -8 -11 -11 -11
-4 -4 -4 -4 -4 -6 -5 -4 -5 -5 -7 -5 -6 -6 -6 -6 -8 -7 -5 -5 -4 -3 -3 -5 -5 -4 -5 -5 -3 -2 -2 -2 1 1 2 -0 2 0 -2 -1 -6 -0 -1 -2 -2 -1 -6 -9 -9 -10 -11 -11 -11 -11
-5 -5 -5 -4 -5 -5 -5 -6 -6 -7 -7 -5 -6 -7 -8 -7 -7 -6 -5 -6 -5 -4 -5 -5 -5 -7 -5 -3 -3 -2 -2 -3 -2 -3 0 -0 1 -2 1 0 -3 -5 -6 -2 -3 -6 -8 -9 -10 -9 -9 -9 -10 -10
-5 -5 -5 -5 -5 -5 -5 -7 -6 -9 -6 -5 -6 -7 -7 -6 -6 -6 -4 -5 -4 -3 -3 -5 -7 -5 -1 -1 -1 -1 -1 -1 -0 -0 0 2 0 -3 -1 -2 -1 -3 -4 -3 -3 -5 -6 -8 -8 -9 -9 -9 -10 -10
-5 -5 -5 -6 -5 -4 -5 -7 -7 -10 -6 -5 -6 -7 -5 -5 -7 -6 -6 -4 -4 -4 -3 -3 -4 -5 -3 -1 -1 -1 -1 -0 -1 -1 0 1 -2 -1 -1 -1 -1 -5 -4 -0 1 -5 -4 -6 -8 -9 -9 -9 -9 -9
-6 -6 -6 -6 -6 -5 -6 -6 -9 -7 -5 -7 -7 -6 -6 -6 -6 -5 -5 -3 -3 -3 -3 -2 -3 -2 -1 -2 -2 -1 -1 -1 -1 -1 0 -2 -2 1 2 -1 -6 -6 -5 -6 -5 -8 -8 -7 -7 -8 -8 -8 -8 -9
-6 -6 -6 -5 -6 -6 -6 -8 -6 -5 -7 -7 -6 -6 -6 -6 -5 -5 -5 -2 -3 -3 -3 -1 -3 -2 -2 -2 -2 -3 -2 -2 -2 -1 1 -1 -1 -0 -0 -1 -6 -8 -8 -9 -9 -8 -7 -7 -8 -8 -8 -8 -8 -8
-6 -6 -6 -6 -6 -6 -7 -9 -5 -6 -8 -6 -8 -6 -5 -5 -5 -4 -6 -8 -5 -3 -3 -0 -3 -1 -2 -2 -2 -1 -1 -2 -1 -1 -1 -1 -3 1 -0 -7 -9 -10 -9 -9 -9 -8 -7 -8 -8 -8 -8 -8 -8 -8
-5 -6 -6 -6 -6 -6 -7 -9 -5 -7 -6 -9 -7 -9 -5 -4 -4 -3 -2 -4 -3 -2 -1 -0 -3 -2 -2 -3 -3 -1 -2 -0 -2 0 -2 -2 -2 -1 -6 -8 -8 -8 -7 -6 -6 -5 -6 -6 -6 -6 -6 -7 -7 -8
-6 -6 -5 -5 -6 -7 -7 -9 -6 -6 -7 -9 -6 -4 -5 -3 -4 -5 -3 -3 -2 -2 -2 -2 -7 -1 -2 -4 -2 -1 -1 -2 -1 -3 -4 -1 -4 -7 -9 -6 -6 -5 -5 -5 -4 -3 -3 -3 -3 -3 -3 -4 -5 -6
-10 -9 -8 -6 -5 -6 -9 -8 -6 -7 -8 -6 -6 -4 -4 -4 -5 -2 -2 -3 -4 -2 -4 -5 -6 -6 -1 -2 -1 -2 -2 -2 -2 -5 -3 -4 -4 -5 -4 -5 -5 -4 -4 -4 -4 -4 -4 -3 -3 -2 -2 -3 -3 -3
-8 -8 -9 -9 -6 -5 -8 -9 -5 -5 -5 -5 -7 -7 -6 -4 -3 -4 -4 -6 -5 -6 -4 -4 -4 -4 -2 -4 -3 -4 -3 -3 -3 -3 -3 -4 -0 -4 -4 -4 -3 -4 -4 -3 -3 -3 -3 -4 -3 -2 -2 -2 -1 -2
-8 -7 -8 -8 -8 -5 -8 -7 -7 -7 -6 -6 -4 -4 -4 -6 -2 -4 -5 -6 -5 -7 -4 -4 -2 -3 -4 -5 -3 -3 -1 -2 -5 -1 -4 -4 -3 -5 -4 -3 -3 -3 -3 -3 -3 -4 -4 -4 -3 -3 -1 0 -0 -0
-8 -8 -8 -10 -9 -6 -5 -7 -7 -7 -5 -7 -7 -4 -5 -4 -6 -9 -9 -7 -5 -7 -7 -6 -4 -4 -5 -3 -4 -2 -5 -4 -2 -4 -5 -1 -4 -4 -4 -3 -3 -3 -3 -3 -4 -4 -4 -4 -4 -3 -0 1 1 1
-9 -8 -8 -10 -8 -6 -7 -6 -8 -6 -5 -7 -8 -5 -7 -9 -9 -6 -5 -5 -6 -5 -4 -3 -3 -5 -5 -4 -4 -4 -1 -3 -6 -3 -2 -4 -5 -5 -4 -4 -3 -4 -4 -4 -4 -5 -5 -5 -4 -4 -3 -2 -2 -2
-9 -9 -7 -7 -6 -7 -7 -6 -6 -5 -5 -9 -9 -7 -8 -5 -3 -4 -5 -5 -4 -3 -3 -3 -4 -4 -2 -5 -5 -4 -6 -5 -1 -4 -5 -6 -5 -5 -4 -4 -4 -5 -4 -4 -4 -5 -5 -5 -5 -5 -4 -4 -4 -4
-9 -8 -7 -7 -7 -7 -6 -6 -5 -5 -8 -9 -6 -9 -9 -7 -6 -5 -5 -5 -2 -3 -3 -5 -3 -5 -6 -5 -7 -3 -2 -3 -5 -5 -6 -5 -4 -4 -4 -4 -4 -5 -5 -5 -4 -5 -5 -5 -5 -5 -5 -5 -5 -5
-10 -10 -9 -7 -7 -7 -6 -5 -5 -7 -6 -9 -7 -7 -7 -7 -7 -6 -7 -5 -4 -5 -5 -5 -4 -5 -5 -5 -2 -4 -6 -7 -7 -6 -6 -5 -4 -4 -4 -4 -4 -5 -5 -5 -5 -5 -5 -5 -5 -5 -5 -5 -5 -5
-10 -10 -9 -8 -7 -6 -5 -6 -6 -6 -9 -10 -10 -8 -7 -7 -6 -5 -4 -3 -4 -3 -3 -4 -5 -6 -5 -5 -6 -7 -7 -7 -7 -7 -6 -4 -4 -4 -4 -4 -4 -4 -4 -4 -5 -5 -5 -5 -5 -5 -5 -5 -5 -5
-11 -9 -9 -9 -7 -6 -5 -8 -7 -7 -8 -10 -9 -7 -7 -6 -6 -4 -4 -4 -4 -4 -3 -3 -4 -5 -6 -7 -8 -8 -8 -8 -8 -7 -7 -6 -6 -5 -5 -5 -4 -4 -4 -4 -4 -5 -5 -5 -5 -5 -4 -4 -4 -5
-11 -9 -8 -8 -6 -6 -5 -9 -9 -9 -10 -8 -8 -9 -6 -5 -5 -5 -5 -6 -5 -5 -6 -7 -7 -7 -8 -8 -8 -8 -8 -8 -8 -8 -7 -7 -7 -6 -5 -5 -5 -5 -4 -4 -5 -5 -5 -6 -6 -6 -6 -6 -5 -5
-11 -9 -8 -6 -6 -6 -6 -10 -9 -9 -7 -8 -9 -8 -7 -5 -5 -5 -6 -7 -6 -7 -8 -8 -8 -9 -9 -8 -9 -9 -10 -10 -8 -8 -8 -8 -7 -6 -5 -5 -5 -5 -5 -5 -5 -5 -6 -6 -6 -6 -6 -6 -6 -6
-10 -8 -8 -7 -6 -7 -9 -11 -9 -9 -7 -8 -10 -7 -6 -6 -7 -9 -7 -8 -7 -9 -10 -10 -10 -10 -9 -10 -10 -10 -10 -10 -9 -9 -9 -9 -8 -7 -6 -6 -6 -6 -6 -6 -6 -6 -6 -6 -6 -6 -6 -6 -6 -6
-9 -8 -7 -7 -7 -9 -9 -10 -10 -10 -9 -8 -8 -6 -6 -7 -10 -9 -7 -8 -9 -10 -11 -11 -11 -10 -10 -10 -10 -10 -11 -10 -10 -10 -11 -10 -9 -9 -8 -7 -7 -7 -7 -6 -6 -6 -6 -6 -6 -6 -6 -7 -7 -7
-8 -9 -7 -8 -8 -9 -7 -9 -10 -9 -7 -9 -7 -5 -7 -9 -7 -8 -8 -8 -11 -11 -11 -12 -11 -11 -11 -11 -11 -11 -12 -11 -10 -11 -12 -12 -11 -10 -10 -9 -9 -9 -8 -7 -7 -6 -6 -6 -6 -6 -6 -6 -7 -7
-9 -8 -7 -9 -9 -10 -10 -11 -10 -9 -9 -7 -6 -8 -9 -8 -7 -8 -10 -10 -10 -10 -10 -10 -11 -12 -12 -12 -12 -12 -12 -12 -11 -11 -12 -13 -13 -13 -12 -12 -12 -10 -9 -9 -8 -8 -7 -6 -6 -7 -7 -7 -7 -7
-8 -8 -9 -11 -11 -11 -9 -9 -10 -8 -7 -7 -7 -8 -8 -8 -9 -9 -11 -11 -11 -11 -11 -11 -12 -12 -12 -12 -12 -12 -13 -13 -13 -13 -13 -14 -14 -13 -13 -14 -13 -12 -11 -10 -9 -9 -8 -7 -7 -7 -7 -7 -7 -7
-10 -11 -9 -10 -10 -11 -8 -8 -8 -8 -8 -11 -10 -9 -10 -11 -11 -12 -11 -11 -12 -12 -13 -13 -13 -13 -13 -14 -14 -14 -13 -13 -13 -13 -13 -13 -13 -15 -18 -14 -12 -12 -12 -11 -10 -10 -9 -8 -7 -7 -7 -7 -7 -7
-10 -11 -10 -8 -9 -9 -8 -8 -9 -12 -12 -12 -10 -11 -12 -12 -12 -12 -12 -12 -12 -13 -14 -13 -14 -14 -14 -16 -21 -22 -22 -21 -14 -15 -16 -15 -14 -15 -24 -24 -22 -16 -12 -11 -11 -11 -10 -8 -8 -7 -7 -7 -8 -8
-9 -10 -10 -10 -9 -8 -9 -10 -10 -11 -12 -12 -13 -14 -13 -13 -14 -13 -12 -12 -13 -13 -13 -13 -14 -13 -14 -14 -15 -17 -24 -25 -25 -18 -15 -16 -17 -20 -21 -25 -25 -25 -19 -14 -12 -11 -10 -9 -8 -8 -7 -7 -8 -8
-9 -10 -10 -10 -10 -11 -11 -12 -12 -11 -12 -12 -11 -12 -13 -13 -14 -13 -12 -12 -13 -14 -14 -14 -15 -15 -15 -15 -15 -15 -15 -21 -24 -24 -24 -22 -20 -18 -23 -24 -25 -25 -25 -19 -13 -13 -11 -10 -9 -8 -8 -8 -8 -9
-9 -10 -11 -11 -11 -12 -12 -10 -11 -12 -12 -12 -13 -13 -13 -12 -13 -13 -14 -14 -14 -13 -13 -14 -14 -15 -18 -21 -22 -23 -23 -23 -23 -23 -23 -23 -23 -24 -24 -24 -24 -24 -25 -23 -15 -14 -13 -12 -11 -10 -9 -8 -8 -8
-11 -11 -11 -11 -12 -11 -12 -11 -13 -12 -13 -13 -13 -13 -13 -13 -13 -13 -15 -14 -13 -13 -14 -14 -15 -17 -19 -20 -20 -22 -22 -22 -23 -23 -23 -23 -23 -23 -23 -24 -24 -24 -24 -23 -18 -15 -14 -13 -12 -11 -9 -8 -8 -8

GFSWCAN_850_dewp_240.txt.gz
Dewpoint
-5 -5 -4 -5 -4 -4 -4 -4 -6 -5 -4 -6 -7 -5 -6 -8 -7 -5 -4 -5 -4 -3 -4 -4 -6 -6 -6 -6 -2 -5 -3 -3 -1 -1 1 -0 -1 -2 -2 -4 -3 -1 2 1 1 1 2 -8 -9 -6 -6 -8 -9 -9
-5 -5 -4 -4 -4 -4 -4 -5 -5 -4 -5 -5 -7 -5 -6 -6 -5 -6 -5 -6 -6 -5 -4 -6 -4 -5 -4 -5 -5 -4 -2 -3 -2 -1 -0 1 -0 1 2 3 -4 1 1 1 -2 -1 -3 -7 -7 -8 -8 -8 -8 -8
-5 -5 -5 -5 -5 -4 -5 -5 -5 -7 -6 -7 -6 -5 -6 -6 -7 -6 -5 -5 -4 -4 -5 -5 -5 -6 -6 -6 -6 -3 -4 -4 -4 -3 0 1 0 -1 -0 -2 -2 -4 -5 2 1 -2 -5 -6 -8 -8 -8 -8 -7 -7
-5 -5 -5 -5 -5 -5 -5 -5 -5 -6 -6 -8 -6 -5 -5 -6 -7 -6 -5 -5 -4 -4 -3 -7 -8 -7 -6 -5 -3 -2 -3 -2 -1 -0 0 1 -0 -4 -1 -2 -1 -2 -3 -1 -1 -2 -3 -4 -6 -7 -7 -7 -7 -8
-7 -6 -6 -5 -5 -5 -5 -5 -6 -6 -7 -10 -5 -4 -6 -6 -6 -6 -6 -6 -6 -4 -4 -5 -6 -8 -8 -7 -6 -1 -0 -0 -0 -0 0 -1 -3 -1 -1 -1 -0 -3 -3 -0 1 -4 -3 -3 -2 -5 -6 -6 -5 -6
-6 -6 -6 -6 -5 -5 -5 -5 -6 -7 -9 -5 -5 -7 -6 -7 -7 -5 -5 -4 -5 -4 -3 -3 -6 -5 -3 -2 -2 -2 -1 -0 -0 -1 -1 -2 -3 -1 3 -1 -5 -6 -6 -5 -4 -5 -5 -5 -6 -6 -7 -7 -7 -8
-6 -6 -6 -6 -6 -6 -5 -5 -6 -8 -5 -5 -8 -6 -7 -7 -6 -5 -5 -3 -3 -4 -3 -2 -3 -3 -4 -1 -1 -2 -1 -1 -2 -1 -1 -2 -2 -2 2 1 -4 -6 -8 -8 -9 -9 -7 -8 -7 -7 -7 -8 -8 -8
-5 -5 -6 -6 -6 -6 -6 -6 -8 -8 -5 -7 -6 -7 -8 -7 -5 -4 -5 -8 -7 -4 -4 -1 -4 -1 -1 -2 -2 -1 -1 -2 -2 -1 -3 -1 -2 1 2 -4 -5 -7 -9 -6 -7 -6 -6 -6 -6 -7 -7 -7 -7 -7
-8 -6 -5 -5 -4 -5 -7 -6 -7 -9 -6 -7 -9 -10 -6 -5 -4 -5 -4 -5 -3 -4 -2 -1 -3 -2 -1 -1 -1 -0 -1 -0 -2 -0 -2 -2 -1 -0 -4 -7 -6 -4 -6 -5 -5 -6 -6 -5 -4 -4 -5 -5 -5 -4
-9 -11 -10 -8 -7 -4 -5 -7 -9 -7 -7 -9 -6 -4 -3 -4 -3 -4 -3 -3 -3 -3 -3 -2 -6 -2 -1 -2 1 0 -0 -1 -1 -2 -4 0 -2 -6 -8 -8 -3 -5 -5 -5 -4 -4 -4 -4 -4 -4 -4 -4 -4 -4
-7 -7 -8 -9 -9 -8 -6 -5 -9 -7 -7 -4 -3 -4 -4 -5 -4 -4 -2 -3 -4 -3 -4 -5 -5 -4 -7 -2 -1 -1 -2 -2 -1 -4 -1 -1 -3 1 -3 -4 -4 -4 -4 -4 -4 -4 -4 -3 -3 -3 -3 -3 -4 -3
-8 -8 -8 -7 -7 -8 -7 -5 -9 -7 -4 -4 -5 -6 -7 -7 -5 -4 -5 -6 -6 -7 -5 -3 -4 -4 -2 -2 -3 -4 -3 -3 -2 -3 -0 -2 0 -4 -4 -4 -3 -3 -3 -3 -3 -3 -3 -3 -4 -4 -4 -3 -3 -3
-9 -9 -8 -7 -7 -8 -8 -6 -6 -8 -7 -6 -4 -4 -4 -6 -4 -3 -5 -7 -5 -7 -6 -4 -1 -3 -3 -4 -3 -4 -2 -3 -4 -1 -3 0 -1 -4 -4 -4 -3 -3 -3 -3 -3 -3 -3 -3 -4 -5 -4 -4 -4 -3
-8 -8 -8 -8 -8 -8 -9 -6 -7 -7 -5 -4 -7 -5 -5 -6 -7 -9 -9 -6 -3 -2 -4 -4 -4 -3 -4 -2 -4 -3 -4 -4 -3 -3 -3 -1 -4 -5 -4 -4 -4 -4 -4 -4 -4 -4 -4 -5 -5 -5 -4 -4 -4 -3
-8 -8 -11 -7 -7 -8 -7 -6 -6 -6 -5 -4 -9 -6 -7 -10 -9 -8 -6 -6 -6 -3 -3 -3 -4 -6 -5 -4 -4 -5 -3 -3 -5 -2 -1 -4 -5 -5 -4 -4 -4 -4 -5 -5 -4 -4 -5 -5 -5 -5 -5 -5 -4 -4
-8 -9 -9 -7 -7 -6 -6 -6 -6 -5 -5 -7 -8 -8 -8 -5 -3 -5 -5 -4 -5 -4 -4 -3 -4 -5 -5 -5 -5 -4 -6 -5 -1 -2 -4 -5 -5 -5 -4 -4 -4 -4 -4 -5 -5 -4 -5 -4 -5 -5 -5 -5 -5 -5
-9 -8 -9 -9 -9 -8 -7 -6 -5 -4 -6 -9 -8 -10 -8 -7 -5 -6 -6 -4 -4 -3 -2 -6 -3 -5 -6 -4 -6 -2 -1 -2 -5 -5 -5 -5 -5 -3 -4 -4 -4 -4 -4 -4 -5 -4 -5 -4 -4 -4 -5 -5 -5 -5
-9 -10 -8 -8 -8 -8 -7 -5 -5 -6 -6 -9 -7 -8 -7 -7 -5 -5 -6 -6 -4 -4 -5 -6 -5 -4 -4 -7 -4 -3 -5 -6 -6 -6 -6 -5 -4 -4 -5 -4 -4 -4 -4 -4 -4 -4 -5 -5 -5 -5 -5 -5 -5 -5
-8 -8 -9 -12 -10 -8 -7 -6 -6 -6 -10 -11 -10 -9 -8 -7 -6 -5 -6 -4 -4 -4 -3 -5 -6 -6 -5 -3 -4 -6 -6 -6 -7 -7 -6 -5 -5 -6 -6 -5 -5 -5 -4 -4 -4 -4 -4 -5 -5 -5 -5 -5 -5 -5
-11 -11 -10 -11 -8 -8 -6 -8 -7 -8 -9 -11 -10 -9 -8 -8 -7 -6 -5 -5 -5 -5 -6 -6 -7 -4 -4 -6 -6 -7 -7 -7 -7 -7 -7 -6 -7 -7 -6 -5 -6 -5 -5 -5 -4 -4 -5 -5 -5 -6 -5 -5 -6 -6
-11 -10 -9 -9 -8 -8 -7 -8 -8 -10 -11 -10 -11 -10 -8 -7 -4 -3 -5 -5 -6 -7 -7 -7 -4 -6 -7 -8 -7 -8 -8 -8 -8 -8 -7 -8 -8 -7 -6 -5 -6 -5 -6 -6 -5 -5 -5 -6 -5 -6 -6 -6 -6 -6
-10 -10 -10 -9 -7 -7 -7 -11 -10 -9 -9 -9 -9 -8 -7 -5 -4 -6 -6 -5 -7 -6 -5 -6 -6 -7 -7 -7 -8 -9 -9 -9 -8 -8 -9 -9 -8 -7 -6 -6 -5 -6 -6 -6 -6 -6 -6 -6 -6 -6 -6 -6 -6 -6
-10 -10 -10 -8 -7 -7 -9 -10 -10 -11 -9 -10 -11 -8 -8 -7 -4 -5 -5 -8 -6 -6 -8 -8 -8 -10 -8 -9 -9 -9 -10 -10 -8 -8 -9 -9 -9 -8 -8 -6 -7 -7 -7 -7 -6 -6 -6 -6 -6 -6 -6 -6 -6 -6
-11 -9 -8 -10 -10 -9 -9 -11 -12 -11 -9 -8 -10 -8 -8 -4 -8 -8 -8 -6 -7 -9 -9 -10 -10 -8 -9 -10 -8 -9 -10 -10 -9 -9 -11 -10 -10 -9 -9 -8 -9 -9 -8 -8 -7 -6 -6 -6 -6 -6 -6 -6 -6 -7
-8 -10 -9 -10 -10 -9 -9 -9 -10 -11 -8 -9 -8 -5 -4 -8 -6 -7 -8 -6 -9 -10 -9 -10 -10 -9 -7 -9 -9 -10 -11 -11 -10 -10 -12 -12 -11 -11 -10 -10 -10 -10 -10 -9 -8 -7 -7 -6 -6 -6 -7 -7 -7 -7
-9 -14 -11 -12 -10 -10 -10 -9 -9 -9 -10 -9 -7 -5 -7 -6 -7 -8 -6 -8 -8 -8 -9 -9 -8 -10 -10 -10 -9 -10 -11 -12 -10 -10 -12 -12 -13 -13 -12 -12 -12 -12 -11 -10 -10 -9 -8 -7 -7 -6 -6 -7 -7 -7
-9 -11 -16 -12 -12 -13 -11 -11 -11 -9 -8 -10 -6 -7 -7 -6 -7 -7 -9 -9 -8 -9 -9 -10 -10 -9 -10 -11 -11 -12 -12 -12 -12 -12 -12 -13 -13 -15 -14 -14 -14 -13 -12 -12 -11 -10 -10 -8 -7 -7 -6 -7 -7 -7
-12 -11 -8 -10 -12 -12 -8 -11 -9 -10 -11 -9 -6 -7 -7 -6 -7 -9 -9 -9 -10 -11 -11 -12 -12 -12 -12 -12 -12 -12 -12 -12 -12 -13 -12 -12 -13 -13 -17 -19 -17 -17 -13 -12 -12 -11 -11 -10 -8 -7 -7 -6 -7 -7
-8 -11 -11 -9 -9 -10 -10 -10 -11 -7 -10 -11 -8 -7 -10 -10 -10 -10 -10 -11 -12 -12 -13 -13 -13 -13 -13 -14 -14 -14 -16 -19 -13 -14 -14 -13 -13 -15 -18 -20 -23 -22 -20 -15 -12 -12 -11 -10 -9 -8 -7 -7 -7 -7
-10 -9 -10 -9 -9 -10 -8 -8 -8 -9 -11 -10 -12 -13 -12 -12 -12 -11 -11 -12 -12 -11 -12 -12 -12 -12 -13 -12 -14 -15 -21 -25 -25 -18 -15 -15 -16 -16 -17 -20 -21 -22 -22 -22 -15 -13 -11 -10 -9 -8 -8 -7 -7 -7
-10 -9 -10 -10 -8 -8 -9 -10 -9 -10 -10 -11 -10 -9 -11 -12 -12 -12 -12 -11 -11 -12 -13 -13 -13 -13 -14 -14 -13 -13 -15 -19 -24 -24 -24 -21 -18 -18 -23 -21 -21 -23 -23 -23 -16 -14 -13 -11 -10 -9 -8 -7 -7 -8
-9 -9 -10 -10 -10 -11 -10 -10 -10 -10 -11 -11 -12 -12 -12 -12 -13 -13 -12 -12 -13 -13 -12 -13 -13 -14 -15 -19 -22 -22 -22 -21 -23 -23 -23 -23 -24 -24 -24 -24 -24 -25 -24 -20 -15 -15 -14 -13 -12 -11 -9 -8 -7 -8
-9 -8 -10 -11 -11 -11 -11 -10 -11 -11 -10 -11 -12 -12 -12 -12 -11 -12 -14 -13 -12 -12 -13 -13 -13 -15 -19 -16 -18 -19 -20 -21 -22 -23 -23 -23 -23 -24 -24 -24 -24 -24 -22 -18 -17 -16 -15 -14 -13 -12 -11 -9 -8 -7

GFSWCAN_850_dewp_246.txt.gz
Dewpoint
-5 -5 -5 -5 -5 -4 -4 -4 -4 -4 -4 -5 -6 -4 -5 -5 -7 -4 -5 -7 -5 -4 -5 -6 -7 -5 -6 -5 -5 -7 -5 -7 -8 -4 -6 -6 -3 -1 -1 -3 -4 -3 -3 -2 -1 0 1 -4 -3 -2 -4 -6 -6 -7
-5 -5 -5 -5 -5 -5 -5 -4 -5 -4 -5 -4 -5 -6 -5 -5 -7 -4 -5 -7 -5 -4 -5 -7 -7 -8 -7 -7 -3 -3 -4 -4 -5 -7 -6 -4 -3 -3 -2 -1 -2 0 0 1 -1 -1 -1 -0 -0 -1 -2 -3 -5 -6
-5 -5 -5 -5 -5 -5 -5 -5 -5 -6 -5 -4 -5 -5 -5 -7 -7 -4 -5 -5 -6 -5 -7 -7 -8 -12 -9 -9 -9 -5 -6 -5 -5 -4 -3 -3 -3 -3 -1 -1 -1 -2 -1 1 1 0 -1 -3 -2 -1 -2 -3 -3 -4
-6 -6 -6 -6 -6 -6 -6 -5 -5 -5 -5 -5 -5 -5 -6 -7 -5 -4 -5 -6 -5 -5 -5 -7 -9 -8 -8 -7 -6 -6 -6 -6 -6 -5 -3 -2 -1 -2 -2 -2 -2 -3 -5 -4 -3 -4 -3 -3 -2 -3 -2 -4 -5 -6
-6 -6 -6 -6 -6 -6 -6 -5 -5 -5 -5 -6 -5 -5 -8 -8 -5 -4 -4 -5 -6 -6 -6 -6 -9 -13 -12 -10 -8 -5 -4 -4 -3 -2 -2 -2 -3 -2 -4 -3 -2 -4 -3 -1 -2 -4 -3 -4 -4 -3 -4 -5 -6 -6
-6 -7 -6 -6 -6 -6 -6 -5 -5 -5 -5 -5 -6 -8 -5 -5 -7 -6 -8 -4 -4 -5 -5 -6 -7 -11 -11 -4 -7 -8 -8 -4 -2 -2 -1 -1 -2 -1 -1 -2 -6 -7 -7 -5 -3 -5 -4 -3 -4 -5 -5 -5 -5 -5
-10 -7 -7 -7 -7 -6 -5 -6 -6 -6 -5 -6 -8 -5 -6 -7 -5 -5 -9 -5 -4 -4 -5 -4 -6 -10 -3 -7 -5 -3 -2 -4 -3 -1 -1 -2 -3 -2 -1 -2 -6 -7 -7 -7 -7 -4 -4 -5 -4 -5 -6 -6 -7 -8
-9 -9 -9 -8 -7 -5 -6 -5 -5 -6 -6 -6 -8 -6 -6 -6 -6 -5 -7 -8 -8 -5 -5 -5 -6 -6 -6 -3 -2 -2 -2 -1 -2 -2 -2 -3 -3 -3 -2 -4 -5 -4 -1 -2 -3 -4 -4 -4 -6 -6 -5 -5 -5 -4
-8 -9 -9 -8 -9 -9 -7 -7 -6 -6 -6 -8 -9 -7 -6 -6 -5 -9 -4 -6 -8 -7 -5 -5 -5 -8 -3 -1 -3 -1 -2 -1 -3 -2 -3 -3 -2 -1 -3 -2 -1 -0 -1 -1 -3 -5 -6 -5 -4 -5 -4 -4 -4 -4
-8 -9 -9 -9 -8 -7 -8 -9 -9 -8 -6 -9 -7 -5 -5 -5 -7 -6 -3 -3 -4 -4 -5 -4 -6 -5 -4 -3 -5 -3 -2 -1 -1 -3 -3 -2 -2 -2 -1 -1 -1 -2 -3 -3 -4 -3 -4 -4 -4 -4 -4 -3 -4 -4
-7 -8 -9 -8 -8 -8 -7 -8 -9 -8 -7 -8 -5 -5 -4 -3 -4 -3 -4 -3 -4 -4 -4 -4 -6 -6 -7 -6 -6 -7 -5 -4 -2 -3 -2 -2 -1 -0 -2 -2 -3 -3 -3 -4 -4 -4 -4 -4 -4 -4 -4 -5 -6 -6
-7 -9 -9 -9 -8 -8 -8 -7 -9 -6 -7 -4 -5 -6 -6 -6 -7 -6 -6 -5 -3 -4 -4 -4 -4 -5 -6 -6 -4 -4 -2 -2 -1 -4 -3 -2 -1 -3 -4 -4 -4 -4 -4 -5 -4 -5 -5 -5 -5 -4 -5 -5 -5 -5
-8 -9 -11 -8 -8 -7 -7 -9 -7 -6 -6 -7 -8 -7 -5 -6 -6 -4 -7 -4 -6 -6 -4 -2 -2 -1 -1 -1 -1 -1 -1 -2 -4 -7 -4 -2 -3 -4 -4 -4 -5 -4 -5 -4 -4 -5 -5 -5 -5 -5 -5 -5 -5 -4
-9 -9 -11 -9 -8 -7 -5 -6 -9 -6 -5 -5 -4 -5 -5 -6 -5 -6 -5 -6 -8 -5 -4 -3 -1 -1 -1 -1 -2 -1 -3 -3 -4 -6 -2 -3 -3 -5 -5 -5 -5 -5 -5 -5 -5 -4 -5 -5 -5 -4 -5 -5 -5 -5
-8 -8 -10 -9 -11 -8 -7 -6 -8 -6 -6 -5 -5 -6 -5 -7 -7 -7 -8 -7 -6 -5 -5 -4 -3 -3 -3 -3 -3 -3 -4 -3 -3 -5 -5 -3 -5 -4 -4 -5 -5 -5 -5 -5 -5 -5 -5 -5 -5 -5 -5 -5 -5 -5
-8 -8 -9 -11 -8 -8 -9 -8 -6 -6 -6 -6 -5 -5 -7 -6 -8 -8 -5 -8 -10 -6 -4 -4 -4 -4 -3 -3 -3 -4 -3 -5 -5 -4 -4 -5 -5 -5 -4 -6 -6 -5 -6 -5 -5 -5 -5 -5 -5 -5 -5 -6 -6 -5
-8 -8 -10 -10 -8 -9 -10 -10 -7 -5 -6 -6 -6 -7 -8 -8 -7 -9 -11 -9 -6 -5 -6 -3 -2 -4 -4 -3 -3 -3 -5 -6 -4 -5 -5 -5 -5 -4 -5 -6 -6 -6 -6 -6 -6 -5 -5 -5 -5 -5 -5 -6 -6 -6
-8 -9 -8 -10 -9 -9 -11 -13 -9 -6 -5 -6 -6 -7 -9 -8 -8 -8 -9 -11 -10 -6 -5 -4 -3 -2 -5 -4 -2 -4 -4 -4 -5 -6 -7 -7 -6 -6 -6 -7 -7 -6 -6 -6 -6 -6 -5 -5 -6 -6 -6 -6 -6 -6
-9 -7 -8 -9 -9 -11 -14 -10 -9 -7 -8 -9 -10 -10 -10 -10 -11 -11 -11 -10 -9 -8 -3 -2 -3 -3 -4 -5 -5 -5 -4 -5 -6 -7 -8 -6 -6 -7 -8 -7 -7 -7 -7 -7 -6 -6 -6 -6 -6 -6 -7 -6 -6 -6
-9 -8 -8 -9 -11 -11 -11 -11 -10 -7 -7 -11 -12 -10 -9 -9 -10 -10 -10 -10 -9 -6 -3 -3 -4 -6 -5 -5 -5 -6 -6 -6 -7 -8 -8 -8 -8 -9 -9 -8 -7 -7 -5 -7 -7 -8 -7 -7 -7 -6 -7 -7 -6 -6
-8 -9 -10 -12 -9 -9 -12 -10 -9 -9 -9 -12 -14 -12 -9 -9 -9 -9 -9 -10 -6 -5 -4 -4 -6 -7 -6 -6 -6 -6 -8 -8 -8 -9 -9 -8 -9 -10 -9 -8 -7 -6 -7 -8 -7 -7 -6 -6 -6 -7 -7 -7 -7 -7
-9 -12 -11 -10 -9 -9 -8 -10 -12 -14 -12 -11 -10 -10 -8 -10 -8 -9 -10 -6 -4 -5 -5 -6 -7 -6 -6 -6 -8 -8 -9 -9 -10 -10 -8 -9 -11 -11 -10 -8 -8 -9 -9 -9 -8 -7 -7 -7 -7 -7 -7 -7 -7 -7
-9 -11 -10 -11 -10 -10 -11 -15 -10 -12 -11 -12 -14 -10 -9 -8 -9 -10 -5 -4 -4 -5 -6 -7 -7 -6 -7 -8 -8 -9 -10 -11 -10 -8 -9 -11 -12 -10 -10 -9 -10 -11 -10 -10 -9 -8 -8 -7 -7 -7 -7 -7 -7 -7
-9 -10 -10 -10 -10 -14 -14 -11 -9 -10 -10 -9 -8 -11 -10 -11 -10 -7 -8 -7 -6 -6 -6 -6 -6 -7 -7 -8 -9 -9 -11 -11 -9 -9 -11 -12 -13 -11 -11 -11 -11 -11 -12 -11 -10 -9 -8 -8 -7 -7 -7 -7 -7 -8
-10 -10 -12 -13 -10 -12 -14 -14 -12 -13 -11 -11 -8 -6 -9 -5 -7 -7 -9 -10 -7 -7 -7 -8 -9 -10 -10 -10 -9 -10 -12 -12 -10 -10 -11 -12 -14 -13 -12 -12 -12 -12 -12 -12 -11 -11 -10 -9 -8 -8 -7 -7 -7 -7
-10 -12 -11 -14 -15 -13 -14 -13 -12 -14 -14 -13 -11 -10 -6 -9 -9 -9 -9 -8 -8 -8 -9 -10 -10 -8 -8 -9 -9 -11 -12 -13 -12 -11 -12 -13 -15 -16 -17 -18 -18 -16 -15 -13 -12 -12 -12 -11 -10 -9 -8 -7 -7 -7
-12 -16 -11 -14 -15 -13 -12 -12 -13 -11 -10 -11 -13 -9 -8 -7 -7 -9 -8 -8 -8 -9 -9 -11 -9 -8 -9 -9 -10 -11 -12 -14 -12 -12 -13 -13 -13 -14 -14 -16 -20 -22 -23 -21 -16 -12 -12 -12 -12 -11 -9 -8 -7 -7
-13 -12 -14 -15 -13 -15 -14 -12 -9 -8 -8 -6 -7 -7 -10 -11 -12 -9 -9 -8 -9 -9 -10 -10 -10 -9 -10 -11 -12 -13 -15 -14 -13 -13 -13 -13 -13 -13 -14 -15 -23 -25 -25 -24 -23 -18 -14 -13 -12 -11 -10 -9 -8 -7
-14 -14 -15 -18 -15 -13 -13 -13 -11 -11 -9 -9 -11 -11 -10 -10 -10 -10 -9 -9 -9 -10 -11 -11 -11 -11 -12 -12 -14 -16 -17 -18 -14 -12 -13 -13 -14 -14 -15 -23 -26 -26 -26 -26 -24 -22 -20 -16 -14 -12 -11 -10 -8 -7
-12 -12 -13 -15 -14 -14 -14 -15 -8 -8 -9 -10 -10 -11 -11 -11 -10 -11 -11 -11 -11 -12 -13 -14 -13 -13 -15 -17 -20 -23 -25 -23 -17 -17 -17 -17 -19 -25 -25 -26 -26 -26 -26 -26 -26 -26 -25 -19 -15 -12 -10 -10 -9 -7
-16 -15 -12 -11 -10 -9 -10 -9 -9 -11 -12 -10 -10 -11 -12 -12 -11 -11 -11 -12 -13 -13 -14 -14 -13 -13 -13 -14 -15 -16 -20 -24 -26 -26 -26 -25 -25 -25 -25 -25 -25 -26 -26 -26 -26 -27 -26 -19 -15 -14 -12 -10 -9 -8
-13 -12 -11 -12 -14 -10 -10 -10 -11 -11 -10 -10 -11 -12 -13 -13 -12 -11 -11 -12 -11 -11 -12 -13 -14 -14 -13 -14 -15 -15 -17 -23 -25 -25 -25 -25 -25 -25 -25 -25 -25 -25 -25 -25 -25 -26 -22 -17 -15 -14 -13 -12 -10 -9
-8 -10 -11 -12 -13 -13 -10 -9 -10 -11 -11 -10 -11 -12 -13 -14 -16 -12 -12 -12 -12 -12 -13 -14 -15 -15 -15 -16 -18 -22 -23 -23 -24 -24 -24 -24 -24 -24 -24 -25 -25 -25 -25 -25 -25 -25 -19 -16 -15 -14 -13 -13 -11 -10